Dunkirk, NY

11:33 AM EST on February 27, 2017 (GMT -0500)
Chautauqua County-Dunkirk

Weather History for KDKK - December, 2013

Change the Weather History Date:

Friday, December 6, 2013

  Actual Average Record
Temperature  
Mean Temperature 32 °F -  
Max Temperature 35 °F 41 °F 68 °F (1982)
Min Temperature 28 °F 28 °F 11 °F (1926)
Degree Days  
Heating Degree Days 34    
Moisture  
Dew Point 26 °F    
Average Humidity 76    
Maximum Humidity 93    
Minimum Humidity 64    
Precipitation  
Precipitation 0.09 in - - ()
Sea Level Pressure  
Sea Level Pressure 30.15 in    
Wind  
Wind Speed 8 mph (West)    
Max Wind Speed 13 mph    
Max Gust Speed 22 mph    
Visibility 8 miles    
Events Snow    
Averages and records for this station are not official NWS values.
T = Trace of Precipitation, MM = Missing Value Source: NWS Daily Summary

Daily Weather History Graph

Daily Weather History Graph

Search for Another Location

Airport or City:

Trip Planner

Search our weather history database for the weather conditions in past years. The results will help you decide how hot, cold, wet, or windy it might be!

Date:

Astronomy

Dec. 06, 2013 Rise Set
Actual Time 7:32 AM EST 4:44 PM EST
Civil Twilight 7:00 AM EST 5:15 PM EST
Nautical Twilight 6:25 AM EST 5:51 PM EST
Astronomical Twilight 5:51 AM EST 6:25 PM EST
Moon 10:33 AM EST (12/6) 9:17 PM EST (12/6)
Length of Visible Light 10h 15m
Length of Day
9h 11m
Waxing Crescent, 19% of the Moon is Illuminated
Dec 6
Waxing Crescent
Dec 9
First Quarter
Dec 17
Full
Dec 25
Last Quarter
Jan 1
New

Hourly Weather History & Observations

Time (EST) Temp. Windchill Dew Point Humidity Pressure Visibility Wind Dir Wind Speed Gust Speed Precip Events Conditions
12:14 AM 33.8 °F 27.7 °F 30.2 °F 87% 30.06 in 1.8 mi West 6.9 mph - 0.03 in Snow Light Snow
12:19 AM 33.8 °F 27.7 °F 30.2 °F 87% 30.06 in 2.0 mi West 6.9 mph - 0.03 in Snow Light Snow
12:25 AM 33.8 °F 27.0 °F 30.2 °F 87% 30.07 in 3.0 mi West 8.1 mph - 0.04 in Snow Light Snow
12:37 AM 33.8 °F 27.0 °F 32.0 °F 93% 30.08 in 4.0 mi West 8.1 mph - 0.05 in Snow Light Snow
12:53 AM 34.0 °F 25.0 °F 32.0 °F 92% 30.09 in 5.0 mi West 12.7 mph 19.6 mph 0.06 in Snow Light Snow
1:04 AM 33.8 °F 25.8 °F 30.2 °F 87% 30.08 in 4.0 mi West 10.4 mph 19.6 mph 0.00 in Snow Light Snow
1:13 AM 33.8 °F 25.3 °F 30.2 °F 87% 30.07 in 2.0 mi West 11.5 mph 19.6 mph 0.01 in Snow Light Snow
1:32 AM 33.8 °F 27.0 °F 30.2 °F 87% 30.06 in 3.0 mi West 8.1 mph 21.9 mph 0.01 in Snow Light Snow
1:39 AM 33.8 °F 26.4 °F 30.2 °F 87% 30.06 in 5.0 mi West 9.2 mph - 0.01 in Snow Light Snow
1:53 AM 34.0 °F 28.0 °F 30.9 °F 89% 30.08 in 4.0 mi West 6.9 mph - 0.02 in Snow Light Snow
2:43 AM 33.8 °F 29.6 °F 32.0 °F 93% 30.07 in 5.0 mi WSW 4.6 mph - 0.00 in Snow Light Snow
2:53 AM 34.0 °F 27.2 °F 32.0 °F 92% 30.09 in 3.0 mi West 8.1 mph - 0.01 in Snow Light Snow
3:25 AM 33.8 °F 27.0 °F 30.2 °F 87% 30.09 in 9.0 mi West 8.1 mph - 0.00 in Snow Light Snow
3:40 AM 33.8 °F 27.7 °F 30.2 °F 87% 30.06 in 7.0 mi West 6.9 mph - 0.00 in Snow Light Snow
3:53 AM 34.0 °F 28.0 °F 30.9 °F 89% 30.09 in 6.0 mi West 6.9 mph - 0.00 in Snow Light Snow
4:17 AM 33.8 °F 27.0 °F 30.2 °F 87% 30.08 in 10.0 mi West 8.1 mph - 0.00 in   Overcast
4:53 AM 35.1 °F 27.9 °F 28.0 °F 76% 30.12 in 10.0 mi West 9.2 mph - 0.00 in   Overcast
5:34 AM 35.6 °F 28.6 °F 26.6 °F 70% 30.11 in 10.0 mi WNW 9.2 mph - N/A   Overcast
5:42 AM 35.6 °F 30.7 °F 26.6 °F 70% 30.11 in 10.0 mi West 5.8 mph - N/A   Overcast
5:53 AM 35.1 °F 30.1 °F 26.1 °F 70% 30.14 in 10.0 mi West 5.8 mph - N/A   Overcast
6:53 AM 35.1 °F 28.6 °F 26.1 °F 70% 30.16 in 10.0 mi West 8.1 mph - N/A   Mostly Cloudy
7:39 AM 35.6 °F 29.9 °F 26.6 °F 70% 30.15 in 10.0 mi WNW 6.9 mph - N/A   Overcast
7:53 AM 35.1 °F 30.1 °F 26.1 °F 70% 30.17 in 10.0 mi West 5.8 mph - N/A   Overcast
8:30 AM 35.6 °F 30.7 °F 26.6 °F 70% 30.14 in 10.0 mi West 5.8 mph - N/A   Overcast
8:53 AM 35.1 °F 30.1 °F 24.1 °F 64% 30.18 in 10.0 mi WNW 5.8 mph - N/A   Overcast
9:53 AM 35.1 °F 29.3 °F 26.1 °F 70% 30.21 in 10.0 mi West 6.9 mph - N/A   Overcast
10:53 AM 35.1 °F 29.3 °F 25.0 °F 67% 30.21 in 10.0 mi WNW 6.9 mph - N/A   Overcast
11:06 AM 35.6 °F 30.7 °F 24.8 °F 65% 30.19 in 10.0 mi Variable 5.8 mph - N/A   Overcast
11:53 AM 35.1 °F 27.4 °F 25.0 °F 67% 30.20 in 10.0 mi WNW 10.4 mph 16.1 mph N/A   Overcast
12:11 PM 33.8 °F 26.4 °F 24.8 °F 70% 30.18 in 10.0 mi NW 9.2 mph - N/A   Overcast
12:46 PM 33.8 °F 27.7 °F 24.8 °F 70% 30.18 in 10.0 mi WNW 6.9 mph - N/A   Overcast
12:53 PM 34.0 °F 28.0 °F 23.0 °F 64% 30.21 in 10.0 mi West 6.9 mph - N/A   Overcast
1:26 PM 33.8 °F 26.4 °F 23.0 °F 65% 30.18 in 10.0 mi WNW 9.2 mph - N/A   Overcast
1:53 PM 34.0 °F 26.6 °F 23.0 °F 64% 30.20 in 10.0 mi West 9.2 mph - N/A   Scattered Clouds
2:53 PM 33.1 °F 27.7 °F 23.0 °F 66% 30.19 in 10.0 mi West 5.8 mph - N/A   Mostly Cloudy
3:26 PM 33.8 °F 28.6 °F 23.0 °F 65% 30.18 in 10.0 mi WNW 5.8 mph - N/A   Overcast
3:39 PM 33.8 °F 29.6 °F 23.0 °F 65% 30.17 in 10.0 mi WNW 4.6 mph - N/A   Overcast
3:53 PM 33.1 °F 27.7 °F 23.0 °F 66% 30.21 in 10.0 mi WNW 5.8 mph - N/A   Overcast
4:15 PM 33.8 °F 29.6 °F 23.0 °F 65% 30.17 in 10.0 mi NW 4.6 mph - N/A   Overcast
4:53 PM 32.0 °F 26.4 °F 21.9 °F 66% 30.22 in 10.0 mi NW 5.8 mph - N/A   Overcast
5:34 PM 32.0 °F 24.8 °F 21.2 °F 64% 30.19 in 10.0 mi NW 8.1 mph - N/A   Overcast
5:53 PM 32.0 °F 26.4 °F 21.0 °F 64% 30.23 in 10.0 mi WNW 5.8 mph - N/A   Overcast
6:15 PM 32.0 °F 26.4 °F 21.2 °F 64% 30.21 in 10.0 mi WNW 5.8 mph - N/A   Overcast
6:53 PM 32.0 °F 26.4 °F 21.9 °F 66% 30.25 in 10.0 mi WNW 5.8 mph - N/A   Overcast
7:16 PM 30.2 °F 22.6 °F 23.0 °F 75% 30.22 in 2.5 mi WNW 8.1 mph - 0.00 in Snow Light Snow
7:30 PM 30.2 °F 24.3 °F 24.8 °F 80% 30.21 in 1.5 mi WNW 5.8 mph - 0.00 in Snow Light Snow
7:53 PM 28.9 °F 25.2 °F 26.1 °F 89% 30.24 in 2.5 mi West 3.5 mph - 0.00 in Snow Light Snow
8:02 PM 28.4 °F 22.2 °F 26.6 °F 93% 30.22 in 5.0 mi SW 5.8 mph - 0.00 in Snow Light Snow